EHI
0 0 0 0 0 0 0 0 0 0 0 0 0 0 0 0 0 0 0 0 0 0 1 2 2 1 0 0 0 1 2 3 2 1 0 0 0 0 0 0 0 0 0
0 0 0 0 0 0 0 0 0 0 0 0 0 0 0 0 0 0 0 0 0 0 0 1 1 0 0 0 0 0 1 2 2 1 0 0 0 0 0 0 0 0 0
0 0 0 0 0 0 0 0 0 0 0 0 0 1 0 0 0 0 0 0 0 0 0 0 0 0 0 0 0 0 0 1 1 0 0 0 0 0 0 0 0 0 0
0 0 0 0 0 0 0 0 0 0 0 0 0 0 0 0 0 0 0 0 0 0 0 0 0 0 0 0 0 0 0 0 0 0 0 0 0 0 0 0 0 0 0
0 0 0 0 0 0 0 0 0 0 0 0 0 0 0 0 0 0 0 0 0 0 0 0 0 0 0 0 0 1 1 1 0 0 0 0 0 0 0 0 0 0 0
0 0 0 0 0 0 0 0 0 0 0 0 0 0 0 0 0 0 0 0 0 0 0 0 0 0 0 0 1 2 2 2 1 1 1 0 0 0 0 0 0 0 0
0 0 0 0 0 0 0 0 0 0 0 0 0 0 0 0 0 0 0 0 0 0 0 0 0 0 0 0 1 2 3 3 3 2 2 1 1 0 0 0 0 0 0
0 0 0 0 0 0 0 0 0 0 0 0 0 0 0 0 0 0 0 0 0 0 0 0 0 0 0 0 1 2 3 3 3 3 3 3 2 1 1 0 0 0 0
0 0 0 0 0 0 0 0 0 0 0 0 0 0 0 0 0 0 0 0 0 0 0 0 0 0 0 0 0 1 3 3 3 3 3 3 4 3 3 2 0 0 0
0 0 0 0 0 0 0 0 0 0 0 0 0 0 0 0 0 0 0 0 0 0 0 0 0 0 0 0 0 1 2 3 3 3 3 4 5 5 5 4 2 1 1
0 0 0 0 0 0 0 0 0 0 0 0 0 0 0 0 0 0 0 0 0 0 0 0 0 0 0 0 0 0 1 1 2 3 3 3 4 5 6 5 4 3 2
0 0 0 0 0 0 0 0 0 0 0 0 0 0 0 0 0 0 0 0 0 0 0 0 0 0 0 0 0 0 0 0 1 1 2 3 3 4 4 4 4 3 3
0 0 0 0 0 0 0 0 0 0 0 0 0 0 0 0 0 0 0 0 0 0 0 0 0 0 0 0 0 0 0 0 0 0 1 1 2 2 3 3 3 3 3
0 0 0 0 0 0 0 0 0 0 0 0 0 0 1 1 0 0 0 0 0 1 1 0 0 0 0 0 0 0 0 0 0 0 0 0 1 1 1 2 2 2 2
1 1 0 0 0 0 0 0 0 0 0 0 0 0 1 1 1 0 0 0 0 1 2 1 1 1 0 0 0 0 0 0 0 0 0 0 0 0 0 1 1 1 1
3 3 2 1 0 0 0 0 0 0 0 0 0 1 1 1 1 0 0 0 0 1 2 2 2 1 1 1 0 0 0 0 0 0 0 0 0 0 0 0 0 0 0
5 5 5 4 2 1 0 0 0 0 0 0 1 1 0 0 0 0 0 0 0 0 1 1 1 1 2 2 1 1 0 0 0 0 0 0 0 0 0 0 0 0 0
6 6 6 6 4 3 1 1 1 1 1 1 1 1 0 0 0 0 0 0 0 0 0 1 1 1 3 3 3 2 1 1 0 0 0 0 0 0 0 0 0 0 0
7 7 6 6 6 5 4 3 3 2 2 2 1 0 0 0 0 0 0 0 0 0 1 2 2 3 3 3 3 3 3 2 1 0 0 0 0 0 0 0 0 0 0
7 6 6 6 6 6 6 5 4 3 2 1 0 0 0 0 0 0 0 0 0 0 1 3 3 3 3 3 3 4 4 3 2 1 0 0 0 0 0 0 0 0 0
6 6 5 4 5 6 6 5 5 3 2 1 0 0 0 0 0 0 0 0 0 1 2 3 3 3 3 3 3 4 5 4 3 2 0 0 0 0 0 0 0 0 0
6 6 4 3 4 5 4 4 4 3 3 2 1 0 0 0 0 0 0 0 0 1 2 3 3 3 3 3 3 4 4 3 3 1 0 0 0 0 0 0 0 0 0
8 7 5 4 4 4 3 3 3 3 3 3 2 1 0 0 0 0 0 0 0 0 1 2 3 3 3 3 3 3 3 3 2 1 0 0 0 0 0 0 0 0 0
9 8 6 4 4 3 3 3 3 3 3 4 3 1 0 0 0 0 0 0 0 0 0 1 2 2 2 3 3 3 3 3 2 1 0 0 0 0 0 0 0 0 0
8 8 6 4 4 4 3 1 1 3 4 5 4 2 0 0 0 0 0 0 0 0 0 0 1 1 1 1 2 3 3 3 3 1 0 0 0 0 0 0 0 0 0
8 7 6 4 4 4 3 1 1 2 4 5 5 3 1 0 0 0 0 0 0 1 1 1 0 0 0 0 1 3 3 3 3 2 1 0 0 0 0 0 0 0 0
Wind_Speed
1 1 1 1 1 2 2 2 2 2 2 2 2 2 2 2 1 1 1 3 4 5 5 6 6 6 6 7 7 7 7 7 6 6 6 6 6 6 6 6 6 6 5
2 2 1 1 1 1 1 2 2 2 2 2 1 2 2 2 1 1 1 1 2 4 5 5 5 6 6 7 7 7 6 6 6 6 5 5 5 5 5 6 6 6 5
2 2 2 1 1 1 2 2 2 2 2 2 2 2 1 1 1 1 1 0 0 1 2 3 4 5 6 6 7 6 6 6 6 6 6 6 6 5 5 5 5 5 5
3 3 2 1 1 2 2 2 2 2 2 2 2 1 1 1 1 1 1 0 0 0 1 1 3 3 4 5 5 5 5 5 5 6 6 6 6 6 5 5 5 5 5
3 3 2 1 2 2 2 2 2 2 2 2 2 2 1 1 0 0 1 0 0 0 0 1 1 2 3 3 3 4 4 4 5 5 5 5 5 5 4 4 5 5 5
3 3 2 2 2 2 2 2 3 2 2 2 2 3 2 1 1 1 1 1 1 1 1 0 0 1 2 3 3 4 4 4 5 5 5 5 5 5 5 5 5 5 5
3 3 2 2 2 2 2 3 3 3 2 2 2 2 2 2 2 1 1 1 1 0 1 1 0 0 1 2 2 3 3 4 5 5 5 5 5 5 5 5 5 5 5
3 3 3 2 2 2 2 2 3 2 1 1 2 2 1 2 2 2 1 1 0 0 0 1 1 1 1 0 1 2 2 2 3 4 5 4 5 5 5 5 5 5 5
2 2 3 2 2 3 2 2 3 3 2 1 1 2 2 1 1 2 2 1 1 1 0 0 1 0 1 1 1 2 2 2 2 3 4 4 4 4 4 5 5 5 6
2 2 2 3 2 2 2 2 2 2 3 1 1 1 1 2 2 0 1 1 1 1 1 0 0 0 0 1 0 1 1 1 1 2 2 2 2 3 2 3 3 3 3
1 2 2 2 2 2 2 2 2 2 2 2 2 1 1 1 1 2 1 1 1 1 0 0 0 0 1 1 1 1 2 2 2 2 2 2 2 2 2 1 2 2 2
1 1 1 2 2 2 2 2 2 2 2 2 2 2 2 2 2 2 2 1 1 1 1 0 0 1 1 1 2 2 2 2 2 2 2 2 1 1 1 1 1 2 2
0 0 1 1 1 1 2 2 2 2 2 2 2 1 1 1 2 2 2 1 0 1 1 1 1 1 1 1 1 2 2 2 2 2 2 2 1 1 1 1 1 2 2
1 1 1 1 1 1 2 2 2 2 2 2 1 1 1 1 2 2 3 3 1 0 1 2 1 1 1 1 1 2 1 2 3 3 2 2 1 1 1 1 1 1 1
1 2 2 2 1 1 2 2 1 1 2 1 1 1 1 0 1 1 2 2 3 1 1 1 1 1 1 1 1 2 2 2 3 3 3 2 2 1 1 1 1 0 0
2 2 2 2 2 2 2 2 2 1 2 1 1 2 1 0 0 1 1 1 1 2 1 1 2 2 1 1 1 1 2 2 3 3 3 3 3 2 1 1 1 1 1
2 2 2 2 2 2 2 2 2 2 2 2 1 2 1 1 1 1 1 1 1 2 2 1 1 1 0 0 1 0 1 1 1 3 3 3 3 3 2 2 2 2 2
2 2 2 2 2 2 2 2 2 2 2 2 1 2 1 1 1 1 1 1 1 1 2 1 1 0 0 0 1 1 1 1 1 2 3 3 3 3 3 3 3 3 2
2 2 2 2 2 2 2 2 2 2 2 2 2 2 1 2 1 1 1 1 1 1 1 2 1 0 0 0 1 1 1 1 1 1 2 2 3 3 4 4 4 3 3
2 2 2 2 2 2 2 2 2 2 2 1 1 1 1 2 2 1 1 1 1 1 1 2 1 0 0 1 0 0 1 1 1 1 1 1 2 3 4 4 4 4 4
2 2 2 2 2 2 2 3 3 3 2 2 1 1 1 1 2 2 1 2 2 2 1 1 1 1 0 0 1 1 1 1 1 1 1 1 1 2 2 3 4 4 4
2 2 2 2 2 2 3 4 4 3 3 2 1 1 1 1 1 1 2 2 3 3 2 2 1 2 2 2 1 1 1 1 1 0 1 2 1 2 2 2 3 4 4
3 2 2 2 2 2 3 4 5 4 3 3 2 1 1 0 1 1 1 1 1 2 3 3 3 3 3 3 2 2 2 2 2 1 1 2 1 3 3 3 3 3 3
3 3 3 3 2 2 4 4 4 3 2 2 3 3 2 1 1 1 1 1 1 2 3 3 3 4 3 3 3 3 3 2 2 1 2 2 1 2 3 3 3 3 3
3 3 3 3 3 3 4 5 5 3 2 3 2 2 3 3 3 3 3 2 1 2 2 3 3 3 3 2 3 2 2 1 2 2 1 2 1 2 2 3 2 3 3
4 3 3 4 4 4 5 6 6 3 3 2 2 2 3 4 4 4 4 3 3 3 2 1 1 2 2 2 3 3 3 2 2 2 2 2 1 1 2 2 2 1 2
Wind_Direction
132 120 106 97 102 106 113 113 109 97 88 90 107 121 131 135 140 149 166 181 190 196 197 196 200 203 197 191 188 187 186 184 186 188 189 191 193 193 196 194 190 188 190
141 137 119 101 103 108 118 122 125 116 110 107 103 113 128 138 139 139 147 201 214 206 206 209 207 202 194 194 193 193 190 190 190 192 191 192 193 194 199 198 195 191 192
151 139 126 125 140 123 116 107 101 97 96 97 92 96 106 122 121 126 136 145 224 230 209 208 202 196 199 200 199 196 195 194 192 190 192 193 194 194 194 194 190 180 176
139 126 126 135 130 120 122 119 111 94 85 85 77 66 78 79 88 118 112 111 105 311 236 194 188 195 199 202 206 202 193 187 191 188 187 189 193 192 192 195 192 180 180
136 133 136 147 135 128 124 129 112 112 112 103 95 74 57 51 35 84 111 120 136 131 151 208 180 185 197 201 202 202 192 182 181 182 180 181 187 186 188 190 192 190 193
134 131 139 153 140 123 117 122 114 106 110 109 90 69 53 42 53 51 59 87 120 160 147 180 230 208 204 208 206 204 194 190 184 187 188 189 190 194 196 199 197 200 205
132 136 140 142 133 133 139 129 120 109 97 100 90 61 39 49 59 47 39 52 39 75 140 174 178 186 219 216 211 196 191 194 193 192 197 199 198 200 201 199 199 204 216
136 143 141 143 137 129 121 123 130 132 129 108 118 101 35 11 17 32 42 57 36 47 123 174 177 181 217 224 207 196 191 198 199 197 197 199 201 202 204 211 213 217 222
132 134 140 146 145 143 147 152 153 153 152 108 115 137 139 195 334 1 22 33 48 53 26 63 126 146 201 215 220 222 201 212 216 214 205 198 200 206 212 222 226 228 231
116 129 137 145 151 151 154 169 160 150 145 144 107 91 131 148 147 352 351 19 31 45 25 1 145 144 177 222 188 154 170 179 182 173 162 167 164 173 190 208 223 234 233
88 118 138 145 151 152 159 163 146 147 154 162 160 146 122 106 135 155 250 342 9 347 282 262 189 186 213 226 223 195 172 173 156 151 148 148 158 161 174 208 224 229 227
64 82 127 137 146 151 164 166 157 154 162 156 154 156 160 166 174 164 180 221 300 319 327 307 211 220 221 230 223 194 181 162 143 145 156 154 161 177 207 243 258 254 245
122 108 114 131 138 150 148 143 141 145 152 151 167 175 182 195 167 155 153 166 215 315 339 327 262 241 229 235 240 208 190 168 162 166 169 155 157 187 239 282 290 283 277
190 135 116 117 121 125 128 131 134 143 137 151 162 158 163 189 172 168 165 155 147 354 343 303 308 252 243 233 246 217 210 191 183 184 190 187 188 208 232 275 302 323 322
150 131 131 125 118 110 117 123 124 126 124 134 145 141 141 173 168 174 168 167 163 181 263 288 287 290 257 232 246 216 214 203 194 198 203 200 202 207 215 216 195 161 351
148 136 130 127 115 109 117 116 114 117 113 105 117 112 98 90 103 132 161 171 174 170 202 262 257 281 271 252 219 207 212 213 215 214 214 213 211 209 220 225 222 222 235
157 149 142 127 118 114 112 112 114 114 115 107 100 116 105 94 96 99 111 137 154 158 185 262 277 294 227 347 356 227 221 228 224 219 221 217 215 220 228 231 239 247 252
153 149 139 130 133 129 125 133 135 124 131 131 121 116 118 113 102 113 131 142 162 177 176 206 265 314 283 325 323 303 298 252 231 218 216 218 221 229 237 240 245 251 259
142 141 145 148 152 145 137 145 138 131 133 136 135 142 153 136 143 158 152 142 169 156 167 173 189 145 339 16 42 357 355 325 288 222 216 228 237 242 246 246 247 250 253
153 165 165 170 172 162 148 148 141 140 136 125 126 142 158 162 174 181 168 168 157 134 138 148 145 136 282 330 81 20 344 353 325 338 324 277 259 257 256 254 247 244 242
177 178 169 174 174 166 168 162 159 154 147 138 125 150 161 154 161 171 172 179 166 160 149 147 165 152 216 223 235 218 257 315 298 273 301 308 284 276 268 257 252 246 239
183 171 181 183 182 195 168 161 158 156 157 160 167 195 187 172 177 176 166 167 171 172 177 175 196 217 238 222 207 206 214 254 282 268 266 291 277 273 271 261 260 248 242
189 188 194 184 193 198 174 173 172 168 172 180 183 190 206 122 141 165 147 140 191 207 191 188 207 227 233 221 193 202 214 223 248 270 225 269 269 270 273 268 255 236 235
192 197 203 204 202 212 186 181 177 183 188 198 202 200 196 216 209 177 177 189 235 244 226 216 224 240 242 225 206 206 212 228 268 254 213 251 266 277 289 278 260 249 252
200 204 198 201 209 229 205 186 172 178 194 216 220 214 209 220 225 185 176 204 253 282 260 232 234 247 255 222 180 164 178 194 264 260 207 236 259 279 282 272 269 260 266
205 202 207 210 210 219 210 191 177 182 198 221 229 232 222 221 216 182 180 192 225 256 266 277 280 297 276 240 198 198 201 209 235 249 200 206 228 250 276 269 278 281 279